Location: Albany
(35.0170°S, 117.8920°E)
Time: 09:34:52
(UTC+08:00)

S-56A Canister/Altair - Pass Details

Date: 29 January 2021
Orbit: 632 x 2501 km, 38.9° (Epoch: 25 February)

Event Time Altitude Azimuth Distance (km) Brightness Sun altitude
Rises 17:13:26 0° 251° (WSW) 6,083 13.4 23.8°
Reaches altitude 10° 17:17:19 10° 251° (WSW) 5,148 13.5 23.0°
Maximum altitude 17:32:42 81° 335° (NNW) 2,408 10.4 19.9°
Drops below altitude 10° 17:45:26 10° 60° (ENE) 4,360 10.9 17.3°
Sets 17:48:26 0° 61° (ENE) 5,142 11.2 16.7°
